SCP
-0 -0 -0 -0 -0 -0 -0 0 0 0 0 0 0 0 0 0 0 0 0 0 0 0 0 0 0 0 0 0 0 0 0 0 0 0 0 0 0 0 0 0 0 0 0 0
-0 -0 -0 -0 -0 -0 -0 -0 -0 0 0 0 0 0 0 0 0 0 0 0 0 0 0 0 0 0 0 0 0 0 0 0 0 0 0 0 0 0 0 0 0 0 0 0
-0 -0 -0 -0 -0 -0 -0 0 0 0 0 0 0 0 0 0 0 0 0 0 0 0 0 0 0 0 0 0 0 0 0 0 0 0 0 0 0 0 0 0 0 0 0 0
-0 -0 -0 -0 -0 -0 0 0 0 0 0 0 0 0 0 0 0 0 0 0 0 0 0 0 0 0 0 0 0 0 0 0 0 0 0 0 0 0 0 0 0 0 0 0
-0 -0 -0 -0 -0 -0 0 0 0 0 0 0 0 0 0 0 0 0 0 0 0 0 0 0 0 0 0 0 0 0 0 0 0 0 0 0 0 0 0 0 0 0 0 0
-0 -0 -0 -0 -0 0 0 -0 0 0 0 0 0 0 0 0 0 0 0 0 0 0 0 0 0 0 0 0 0 0 0 0 0 0 0 0 0 0 0 0 0 0 0 0
0 0 0 -0 -0 0 0 0 0 0 0 0 0 0 0 0 0 0 0 0 0 0 0 0 0 0 0 0 0 0 0 0 0 0 0 0 0 0 0 0 0 0 0 0
0 0 0 0 0 0 0 0 0 0 0 0 0 0 0 0 0 0 0 0 0 0 0 0 0 0 0 0 0 0 0 0 0 0 0 0 0 0 0 0 0 0 0 0
0 0 0 0 0 0 0 0 0 0 0 0 0 0 0 0 0 0 0 0 0 0 0 0 0 0 0 0 0 0 0 0 0 0 0 0 0 0 0 0 0 0 0 0
0 0 0 0 0 0 0 0 0 0 0 0 0 0 0 0 0 0 0 0 0 0 0 0 0 0 0 0 0 0 0 0 0 0 0 0 0 0 0 0 0 0 0 0
0 0 0 0 0 0 0 0 0 0 0 0 0 0 0 0 0 0 0 0 0 0 0 0 0 0 0 0 0 0 0 0 0 0 0 0 0 0 0 0 0 0 0 0
0 0 0 0 0 0 0 0 0 0 0 0 0 0 0 0 0 0 0 0 0 0 0 0 0 0 0 0 0 0 0 0 0 0 0 0 0 0 0 0 0 0 0 0
0 0 0 0 0 0 0 0 0 0 0 0 0 0 0 0 0 0 0 0 0 0 0 0 0 0 0 0 0 0 0 0 0 0 0 0 0 0 0 0 0 0 0 0
0 0 0 0 0 0 0 0 0 0 0 0 0 0 0 0 0 0 0 0 0 0 0 0 0 0 0 0 0 0 0 0 0 0 0 0 0 0 0 0 0 0 0 0
0 0 0 0 0 0 0 0 0 0 0 0 0 0 0 0 0 0 0 0 0 0 0 0 0 0 0 0 0 0 0 0 0 0 0 0 0 0 0 0 0 0 0 0
0 0 0 0 0 0 0 0 0 0 0 0 0 0 0 0 0 0 0 0 0 0 0 0 0 0 0 0 0 0 0 0 0 0 0 0 0 0 0 0 0 0 0 0
0 0 0 0 0 0 0 0 0 0 0 0 0 0 0 0 0 0 0 0 0 0 0 0 0 0 0 0 0 0 0 0 0 0 0 0 0 0 0 0 0 0 0 0
0 0 0 0 0 0 0 0 0 0 0 0 0 0 0 0 0 0 0 0 0 0 0 0 0 0 0 0 0 0 0 0 0 0 0 0 0 0 0 0 0 0 0 0
0 0 0 0 0 0 0 0 0 0 0 0 0 0 0 0 0 0 0 0 0 0 0 0 0 0 0 0 0 0 0 0 0 0 0 0 0 0 0 0 0 0 0 0
0 0 0 0 0 0 0 0 0 0 0 0 0 0 0 0 0 0 0 0 0 0 0 0 0 0 0 0 0 0 0 0 0 0 0 0 0 0 0 0 0 0 0 0
0 0 0 0 0 0 0 0 0 0 0 0 0 0 0 0 0 0 0 0 0 0 0 0 0 0 0 0 0 0 0 0 0 0 0 0 0 0 0 0 0 0 0 0
0 0 0 0 0 0 0 0 0 0 0 0 0 0 0 0 0 0 0 0 0 0 0 0 0 0 0 0 0 0 0 0 0 0 0 0 0 0 0 0 0 0 0 0
0 0 0 0 0 0 0 0 0 0 0 0 0 0 0 0 0 0 0 0 0 0 0 0 0 0 0 0 0 0 0 0 0 0 0 0 0 0 0 0 0 0 0 0
0 0 0 0 0 0 0 0 0 0 0 0 0 0 0 0 0 0 0 0 0 0 0 0 0 0 0 0 0 0 0 0 0 0 0 0 0 0 0 0 0 0 0 0
0 0 0 0 0 0 0 0 0 0 0 0 0 0 0 0 0 0 0 0 0 0 0 0 0 0 0 0 0 0 0 0 0 0 0 0 0 0 0 0 0 0 0 0
0 0 0 0 0 0 0 0 0 0 0 0 0 0 0 0 0 0 0 0 0 0 0 0 0 0 0 0 0 0 0 0 0 0 0 0 0 0 0 0 0 0 0 0
0 0 0 0 0 0 0 0 0 0 0 0 0 0 0 0 -0 0 0 0 0 0 -0 -0 0 -0 -0 0 0 0 0 0 0 0 0 0 0 0 0 0 0 0 0 0
Wind_Speed_500mb
55 43 21 11 10 11 6 4 5 4 4 4 8 6 3 5 2 8 5 7 4 3 3 6 4 5 2 6 3 4 2 7 7 11 8 8 4 4 7 8 7 2 7 16
49 50 34 13 6 4 4 6 7 10 7 5 3 2 5 5 4 6 4 4 4 3 6 3 5 6 4 8 3 9 8 2 5 6 9 5 4 4 8 10 6 12 8 13
42 44 44 27 11 5 7 5 4 9 13 13 12 8 3 3 4 4 6 5 4 5 4 4 8 6 7 8 4 10 5 6 10 12 6 5 7 9 8 11 6 7 22 32
35 37 38 38 24 13 6 6 5 5 3 10 10 6 6 5 2 3 3 4 1 6 7 5 8 6 6 5 9 6 7 9 7 11 14 9 15 25 18 20 14 16 25 16
32 32 32 33 30 21 19 7 7 10 9 6 5 7 6 10 4 7 2 3 6 4 5 9 11 10 8 10 6 9 1 4 5 11 8 5 15 25 23 32 30 31 43 52
29 31 31 30 28 23 17 14 12 5 3 4 5 3 5 8 13 2 3 7 8 4 7 6 4 7 5 8 15 13 10 7 5 10 10 15 17 17 27 11 11 18 21 31
27 28 30 31 30 27 23 16 8 3 2 3 5 6 4 7 7 5 6 10 8 5 6 4 6 10 17 17 18 14 11 9 5 6 9 4 10 7 7 16 12 21 23 17
23 24 25 26 26 25 21 19 9 6 2 3 3 9 7 10 6 4 9 11 7 10 2 5 6 5 5 8 12 16 10 9 1 2 5 16 17 2 14 12 13 21 21 7
25 23 22 21 22 24 19 17 13 6 3 9 6 10 12 8 6 1 6 8 15 9 7 5 7 9 8 6 5 8 11 7 7 5 5 12 9 5 11 12 16 12 6 13
18 22 22 20 20 22 20 17 13 7 5 7 12 8 8 12 8 4 5 10 11 13 5 4 7 8 5 6 11 11 8 3 17 9 7 19 25 25 2 6 12 21 17 19
15 13 18 18 19 20 19 15 14 13 9 16 19 21 19 16 14 9 14 8 6 5 5 7 6 5 6 3 5 11 14 14 9 7 5 20 29 14 15 11 8 18 20 30
18 18 13 17 19 19 19 14 17 21 17 20 34 32 35 36 29 19 30 6 12 22 7 2 5 3 1 6 7 1 7 13 9 20 17 10 32 14 27 17 25 17 25 30
21 22 25 22 21 23 27 21 23 29 19 32 27 23 30 41 40 35 17 16 15 15 12 15 5 6 8 7 12 6 10 21 8 2 15 46 49 49 39 42 18 23 27 38
26 25 23 23 24 27 26 25 22 22 15 10 11 15 16 19 29 35 44 35 22 18 21 9 6 6 19 7 8 9 17 16 10 15 40 41 43 46 26 19 25 30 34 44
27 27 26 25 22 25 28 30 30 24 15 9 23 42 43 39 34 31 36 40 31 20 13 7 6 9 8 8 4 10 30 14 13 18 37 31 23 19 20 27 27 27 37 43
29 31 30 28 25 28 22 10 9 13 17 11 7 13 16 16 27 42 33 31 33 30 11 10 13 8 14 5 8 21 35 55 71 44 48 34 25 28 32 29 24 28 34 36
26 27 30 28 30 28 15 9 12 23 17 7 17 12 4 12 14 17 23 31 19 25 12 12 6 10 20 5 8 11 19 40 48 59 63 48 55 33 26 23 26 30 32 32
21 22 23 26 24 28 33 29 35 28 13 10 6 10 10 14 9 9 16 16 21 14 12 7 10 8 15 8 51 31 39 43 42 49 52 54 45 33 29 25 27 30 31 33
15 17 17 21 21 25 23 24 36 37 26 9 12 3 7 8 2 2 7 8 1 9 10 10 18 6 14 36 39 48 59 45 40 25 35 39 38 32 28 25 24 27 30 32
13 9 4 6 9 27 26 17 13 16 22 22 12 18 8 14 14 8 9 10 6 6 10 13 9 13 67 59 72 88 77 64 46 44 33 34 36 35 29 26 26 25 26 30
7 6 7 4 7 19 11 11 14 14 8 15 16 44 23 21 8 8 17 5 6 6 8 9 8 11 14 32 48 43 50 50 47 48 45 39 34 27 25 23 23 24 24 29
10 8 10 12 10 12 11 8 8 9 11 13 14 21 25 13 20 15 15 7 8 11 16 6 10 12 30 35 34 29 31 30 32 35 37 34 32 26 21 20 22 24 25 24
16 10 11 10 15 11 13 17 8 8 13 18 23 9 17 18 21 14 7 9 10 18 7 9 15 9 38 48 42 33 30 30 28 29 31 31 29 24 20 20 23 27 21 19
17 14 11 13 12 13 12 10 7 13 19 35 40 14 13 14 13 10 7 5 3 7 8 17 4 29 44 36 21 26 31 35 37 34 31 30 27 20 18 20 22 23 18 20
18 18 13 19 28 23 13 30 17 13 20 37 17 4 13 7 7 6 5 7 11 14 13 7 10 14 24 32 43 39 35 34 37 36 34 32 25 19 18 19 21 22 20 21
22 24 14 14 11 27 25 25 26 23 27 27 8 8 6 10 7 9 14 8 16 10 6 17 19 43 56 52 66 47 39 38 41 38 33 30 26 20 18 17 19 23 21 24
19 24 56 48 24 25 40 49 47 33 26 8 11 9 15 8 8 11 9 10 6 10 28 30 19 50 62 64 65 46 42 45 49 42 36 32 22 19 21 21 18 22 26 26
Wind_Direction_500mb
42 46 64 112 131 160 169 163 70 40 174 52 55 120 97 138 22 70 71 102 95 105 66 64 85 204 325 149 128 102 20 132 253 237 285 260 254 175 129 134 228 174 148 270
42 40 49 77 133 162 166 126 117 34 172 127 67 133 72 81 55 38 47 101 62 101 130 114 128 137 137 154 124 163 168 233 340 322 352 2 138 146 125 105 92 209 143 261
37 38 38 47 67 113 154 137 57 49 62 77 123 133 130 96 50 77 70 113 88 87 114 63 165 150 207 188 151 128 124 178 203 202 191 130 254 213 178 133 140 206 230 278
33 35 35 38 46 48 119 82 93 86 8 18 91 91 137 123 187 72 79 42 195 160 165 174 186 142 140 206 190 122 138 227 223 254 245 229 241 245 214 218 200 208 265 245
28 29 32 34 39 52 67 87 124 99 99 105 92 8 183 159 174 152 204 188 173 152 184 198 202 149 184 196 162 158 185 257 36 299 348 308 272 262 226 237 240 250 260 273
28 28 27 29 36 53 65 78 95 118 27 71 85 216 156 195 148 171 207 211 128 225 238 193 191 203 179 190 167 181 163 140 89 267 346 318 286 249 205 205 196 215 232 250
21 25 28 28 32 45 61 66 70 87 215 136 184 177 154 159 195 180 181 168 148 178 152 279 265 254 247 226 217 176 144 127 126 261 350 325 251 303 198 200 233 234 265 276
12 14 21 28 30 33 35 45 48 39 142 187 170 155 139 140 155 168 186 196 190 162 111 50 3 328 299 230 218 198 166 131 248 155 217 294 282 245 189 186 262 230 244 293
3 1 3 14 24 19 17 17 23 17 100 249 152 168 189 173 187 258 197 185 176 169 95 90 179 226 230 238 144 62 97 89 138 129 172 241 246 165 80 110 288 193 124 281
334 344 346 349 3 6 3 10 2 352 306 221 197 196 192 177 162 135 160 175 185 186 117 158 185 246 203 221 189 169 133 186 212 208 245 281 248 226 290 87 248 177 265 276
309 334 335 332 339 352 354 353 357 6 311 282 246 243 218 197 191 158 154 108 201 96 165 160 222 181 233 290 221 181 173 161 197 144 173 264 180 105 176 211 282 297 299 311
299 303 303 331 335 339 339 336 331 327 305 279 281 262 253 248 251 238 186 230 169 181 111 212 105 214 75 182 260 163 244 202 188 188 215 252 200 230 205 310 309 294 300 317
289 289 303 296 309 318 322 316 320 328 309 297 276 266 249 246 245 240 237 229 205 201 187 157 157 218 133 195 233 218 247 203 218 218 250 243 241 244 256 291 278 297 310 319
287 281 284 307 317 300 319 322 320 318 296 277 274 271 248 251 244 238 231 242 214 207 189 183 159 178 194 228 262 211 216 159 205 262 276 268 261 258 263 280 285 295 307 319
271 272 274 275 295 311 316 314 306 280 254 287 295 288 277 253 247 236 231 235 227 187 177 177 217 195 167 218 349 243 207 188 204 240 252 247 258 235 289 279 273 295 313 320
266 262 259 265 272 284 315 318 352 292 272 299 315 279 258 242 231 231 231 224 219 208 198 211 232 233 203 188 241 245 228 230 230 240 265 264 269 286 293 267 278 306 315 317
266 264 261 251 261 266 262 261 302 324 320 296 300 282 293 218 212 202 198 201 210 219 217 229 232 209 202 202 237 228 242 239 245 250 255 262 265 276 272 257 289 306 312 319
269 261 255 236 249 270 256 249 271 275 271 237 264 282 318 199 203 197 187 197 208 225 227 209 202 209 220 255 243 250 255 254 252 249 255 258 259 264 244 267 290 302 316 328
276 267 270 250 244 243 264 266 267 245 219 236 195 235 277 183 119 183 180 190 200 245 238 225 172 218 224 231 253 248 257 245 261 262 245 244 238 240 243 265 288 304 320 327
258 278 235 214 237 261 279 245 220 217 214 226 222 194 241 191 183 191 198 206 218 228 232 183 226 252 247 246 260 270 272 269 261 235 225 218 223 234 247 273 291 304 313 318
232 180 182 238 179 163 211 236 203 200 236 221 224 211 226 232 176 198 217 201 198 239 235 189 250 264 250 264 269 271 271 266 260 255 258 253 257 248 253 276 292 300 308 316
181 142 143 171 204 224 229 219 210 208 225 202 187 209 207 207 200 198 207 215 184 248 153 230 260 248 262 273 276 276 276 266 253 240 237 240 238 252 268 287 290 296 301 311
206 192 195 186 214 227 216 200 204 207 191 180 172 167 176 183 201 213 206 222 218 133 204 235 237 259 277 278 283 280 271 257 245 231 219 221 233 248 275 287 289 295 297 301
189 182 209 208 219 225 208 196 165 184 184 178 175 157 178 192 194 211 232 214 159 212 231 236 244 274 303 312 301 281 271 262 242 224 212 219 231 251 274 280 286 287 285 295
188 194 224 223 220 229 220 226 209 206 188 165 142 166 184 188 249 214 220 217 236 216 233 249 258 319 340 344 327 311 276 253 226 213 213 219 229 254 270 273 282 282 290 294
201 220 239 242 226 228 199 193 199 195 186 157 165 181 212 207 213 209 219 205 226 241 235 286 326 339 320 337 308 291 283 248 226 216 218 223 235 261 277 270 269 286 287 297
213 230 231 232 236 229 224 220 219 208 188 174 176 230 214 190 217 211 200 223 275 327 318 319 285 311 328 305 297 288 279 245 228 224 225 230 238 256 262 267 272 275 279 292
Wind_Speed_850mb
55 43 21 11 10 11 6 4 5 4 4 4 8 6 3 5 2 8 5 7 4 3 3 6 4 5 2 6 3 4 2 7 7 11 8 8 4 4 7 8 7 2 7 16
49 50 34 13 6 4 4 6 7 10 7 5 3 2 5 5 4 6 4 4 4 3 6 3 5 6 4 8 3 9 8 2 5 6 9 5 4 4 8 10 6 12 8 13
42 44 44 27 11 5 7 5 4 9 13 13 12 8 3 3 4 4 6 5 4 5 4 4 8 6 7 8 4 10 5 6 10 12 6 5 7 9 8 11 6 7 22 32
35 37 38 38 24 13 6 6 5 5 3 10 10 6 6 5 2 3 3 4 1 6 7 5 8 6 6 5 9 6 7 9 7 11 14 9 15 25 18 20 14 16 25 16
32 32 32 33 30 21 19 7 7 10 9 6 5 7 6 10 4 7 2 3 6 4 5 9 11 10 8 10 6 9 1 4 5 11 8 5 15 25 23 32 30 31 43 52
29 31 31 30 28 23 17 14 12 5 3 4 5 3 5 8 13 2 3 7 8 4 7 6 4 7 5 8 15 13 10 7 5 10 10 15 17 17 27 11 11 18 21 31
27 28 30 31 30 27 23 16 8 3 2 3 5 6 4 7 7 5 6 10 8 5 6 4 6 10 17 17 18 14 11 9 5 6 9 4 10 7 7 16 12 21 23 17
23 24 25 26 26 25 21 19 9 6 2 3 3 9 7 10 6 4 9 11 7 10 2 5 6 5 5 8 12 16 10 9 1 2 5 16 17 2 14 12 13 21 21 7
25 23 22 21 22 24 19 17 13 6 3 9 6 10 12 8 6 1 6 8 15 9 7 5 7 9 8 6 5 8 11 7 7 5 5 12 9 5 11 12 16 12 6 13
18 22 22 20 20 22 20 17 13 7 5 7 12 8 8 12 8 4 5 10 11 13 5 4 7 8 5 6 11 11 8 3 17 9 7 19 25 25 2 6 12 21 17 19
15 13 18 18 19 20 19 15 14 13 9 16 19 21 19 16 14 9 14 8 6 5 5 7 6 5 6 3 5 11 14 14 9 7 5 20 29 14 15 11 8 18 20 30
18 18 13 17 19 19 19 14 17 21 17 20 34 32 35 36 29 19 30 6 12 22 7 2 5 3 1 6 7 1 7 13 9 20 17 10 32 14 27 17 25 17 25 30
21 22 25 22 21 23 27 21 23 29 19 32 27 23 30 41 40 35 17 16 15 15 12 15 5 6 8 7 12 6 10 21 8 2 15 46 49 49 39 42 18 23 27 38
26 25 23 23 24 27 26 25 22 22 15 10 11 15 16 19 29 35 44 35 22 18 21 9 6 6 19 7 8 9 17 16 10 15 40 41 43 46 26 19 25 30 34 44
27 27 26 25 22 25 28 30 30 24 15 9 23 42 43 39 34 31 36 40 31 20 13 7 6 9 8 8 4 10 30 14 13 18 37 31 23 19 20 27 27 27 37 43
29 31 30 28 25 28 22 10 9 13 17 11 7 13 16 16 27 42 33 31 33 30 11 10 13 8 14 5 8 21 35 55 71 44 48 34 25 28 32 29 24 28 34 36
26 27 30 28 30 28 15 9 12 23 17 7 17 12 4 12 14 17 23 31 19 25 12 12 6 10 20 5 8 11 19 40 48 59 63 48 55 33 26 23 26 30 32 32
21 22 23 26 24 28 33 29 35 28 13 10 6 10 10 14 9 9 16 16 21 14 12 7 10 8 15 8 51 31 39 43 42 49 52 54 45 33 29 25 27 30 31 33
15 17 17 21 21 25 23 24 36 37 26 9 12 3 7 8 2 2 7 8 1 9 10 10 18 6 14 36 39 48 59 45 40 25 35 39 38 32 28 25 24 27 30 32
13 9 4 6 9 27 26 17 13 16 22 22 12 18 8 14 14 8 9 10 6 6 10 13 9 13 67 59 72 88 77 64 46 44 33 34 36 35 29 26 26 25 26 30
7 6 7 4 7 19 11 11 14 14 8 15 16 44 23 21 8 8 17 5 6 6 8 9 8 11 14 32 48 43 50 50 47 48 45 39 34 27 25 23 23 24 24 29
10 8 10 12 10 12 11 8 8 9 11 13 14 21 25 13 20 15 15 7 8 11 16 6 10 12 30 35 34 29 31 30 32 35 37 34 32 26 21 20 22 24 25 24
16 10 11 10 15 11 13 17 8 8 13 18 23 9 17 18 21 14 7 9 10 18 7 9 15 9 38 48 42 33 30 30 28 29 31 31 29 24 20 20 23 27 21 19
17 14 11 13 12 13 12 10 7 13 19 35 40 14 13 14 13 10 7 5 3 7 8 17 4 29 44 36 21 26 31 35 37 34 31 30 27 20 18 20 22 23 18 20
18 18 13 19 28 23 13 30 17 13 20 37 17 4 13 7 7 6 5 7 11 14 13 7 10 14 24 32 43 39 35 34 37 36 34 32 25 19 18 19 21 22 20 21
22 24 14 14 11 27 25 25 26 23 27 27 8 8 6 10 7 9 14 8 16 10 6 17 19 43 56 52 66 47 39 38 41 38 33 30 26 20 18 17 19 23 21 24
19 24 56 48 24 25 40 49 47 33 26 8 11 9 15 8 8 11 9 10 6 10 28 30 19 50 62 64 65 46 42 45 49 42 36 32 22 19 21 21 18 22 26 26
Wind_Direction_850mb
42 46 64 112 131 160 169 163 70 40 174 52 55 120 97 138 22 70 71 102 95 105 66 64 85 204 325 149 128 102 20 132 253 237 285 260 254 175 129 134 228 174 148 270
42 40 49 77 133 162 166 126 117 34 172 127 67 133 72 81 55 38 47 101 62 101 130 114 128 137 137 154 124 163 168 233 340 322 352 2 138 146 125 105 92 209 143 261
37 38 38 47 67 113 154 137 57 49 62 77 123 133 130 96 50 77 70 113 88 87 114 63 165 150 207 188 151 128 124 178 203 202 191 130 254 213 178 133 140 206 230 278
33 35 35 38 46 48 119 82 93 86 8 18 91 91 137 123 187 72 79 42 195 160 165 174 186 142 140 206 190 122 138 227 223 254 245 229 241 245 214 218 200 208 265 245
28 29 32 34 39 52 67 87 124 99 99 105 92 8 183 159 174 152 204 188 173 152 184 198 202 149 184 196 162 158 185 257 36 299 348 308 272 262 226 237 240 250 260 273
28 28 27 29 36 53 65 78 95 118 27 71 85 216 156 195 148 171 207 211 128 225 238 193 191 203 179 190 167 181 163 140 89 267 346 318 286 249 205 205 196 215 232 250
21 25 28 28 32 45 61 66 70 87 215 136 184 177 154 159 195 180 181 168 148 178 152 279 265 254 247 226 217 176 144 127 126 261 350 325 251 303 198 200 233 234 265 276
12 14 21 28 30 33 35 45 48 39 142 187 170 155 139 140 155 168 186 196 190 162 111 50 3 328 299 230 218 198 166 131 248 155 217 294 282 245 189 186 262 230 244 293
3 1 3 14 24 19 17 17 23 17 100 249 152 168 189 173 187 258 197 185 176 169 95 90 179 226 230 238 144 62 97 89 138 129 172 241 246 165 80 110 288 193 124 281
334 344 346 349 3 6 3 10 2 352 306 221 197 196 192 177 162 135 160 175 185 186 117 158 185 246 203 221 189 169 133 186 212 208 245 281 248 226 290 87 248 177 265 276
309 334 335 332 339 352 354 353 357 6 311 282 246 243 218 197 191 158 154 108 201 96 165 160 222 181 233 290 221 181 173 161 197 144 173 264 180 105 176 211 282 297 299 311
299 303 303 331 335 339 339 336 331 327 305 279 281 262 253 248 251 238 186 230 169 181 111 212 105 214 75 182 260 163 244 202 188 188 215 252 200 230 205 310 309 294 300 317
289 289 303 296 309 318 322 316 320 328 309 297 276 266 249 246 245 240 237 229 205 201 187 157 157 218 133 195 233 218 247 203 218 218 250 243 241 244 256 291 278 297 310 319
287 281 284 307 317 300 319 322 320 318 296 277 274 271 248 251 244 238 231 242 214 207 189 183 159 178 194 228 262 211 216 159 205 262 276 268 261 258 263 280 285 295 307 319
271 272 274 275 295 311 316 314 306 280 254 287 295 288 277 253 247 236 231 235 227 187 177 177 217 195 167 218 349 243 207 188 204 240 252 247 258 235 289 279 273 295 313 320
266 262 259 265 272 284 315 318 352 292 272 299 315 279 258 242 231 231 231 224 219 208 198 211 232 233 203 188 241 245 228 230 230 240 265 264 269 286 293 267 278 306 315 317
266 264 261 251 261 266 262 261 302 324 320 296 300 282 293 218 212 202 198 201 210 219 217 229 232 209 202 202 237 228 242 239 245 250 255 262 265 276 272 257 289 306 312 319
269 261 255 236 249 270 256 249 271 275 271 237 264 282 318 199 203 197 187 197 208 225 227 209 202 209 220 255 243 250 255 254 252 249 255 258 259 264 244 267 290 302 316 328
276 267 270 250 244 243 264 266 267 245 219 236 195 235 277 183 119 183 180 190 200 245 238 225 172 218 224 231 253 248 257 245 261 262 245 244 238 240 243 265 288 304 320 327
258 278 235 214 237 261 279 245 220 217 214 226 222 194 241 191 183 191 198 206 218 228 232 183 226 252 247 246 260 270 272 269 261 235 225 218 223 234 247 273 291 304 313 318
232 180 182 238 179 163 211 236 203 200 236 221 224 211 226 232 176 198 217 201 198 239 235 189 250 264 250 264 269 271 271 266 260 255 258 253 257 248 253 276 292 300 308 316
181 142 143 171 204 224 229 219 210 208 225 202 187 209 207 207 200 198 207 215 184 248 153 230 260 248 262 273 276 276 276 266 253 240 237 240 238 252 268 287 290 296 301 311
206 192 195 186 214 227 216 200 204 207 191 180 172 167 176 183 201 213 206 222 218 133 204 235 237 259 277 278 283 280 271 257 245 231 219 221 233 248 275 287 289 295 297 301
189 182 209 208 219 225 208 196 165 184 184 178 175 157 178 192 194 211 232 214 159 212 231 236 244 274 303 312 301 281 271 262 242 224 212 219 231 251 274 280 286 287 285 295
188 194 224 223 220 229 220 226 209 206 188 165 142 166 184 188 249 214 220 217 236 216 233 249 258 319 340 344 327 311 276 253 226 213 213 219 229 254 270 273 282 282 290 294
201 220 239 242 226 228 199 193 199 195 186 157 165 181 212 207 213 209 219 205 226 241 235 286 326 339 320 337 308 291 283 248 226 216 218 223 235 261 277 270 269 286 287 297
213 230 231 232 236 229 224 220 219 208 188 174 176 230 214 190 217 211 200 223 275 327 318 319 285 311 328 305 297 288 279 245 228 224 225 230 238 256 262 267 272 275 279 292